Weather in Lekhtusi

Russia / Saint-Petersburg and Leningrad Oblast     60°17′11″N   30°33′40″E
temp.,
°C
wind,
m/s
gust,
m/s
humid.,
%
clouds,
%
prec.,
mm/h
press.,
hPa
HPBL,
m
27 october, wed
wed2700:00+6ssw3993100 0.1 1007440
03:00+6ssw3993100 0.2 1005451
06:00+7wsw61391100 1.8 1003963
09:00+7w4108664 1.8 1003820
12:00+7wsw41084100 0.1 1005565
15:00+8wsw4118499 0.1 1005753
18:00+8wsw51186100 0.0 1005817
21:00+6ssw3890100 0.1 1004358
28 october, thu
thu2800:00+6sse3792100 3.6 1002753
03:00+6ene2494100 3.9 1002362
06:00+6nnw2496100 0.0 1006326
09:00+6nw2893100 0.0 1010440
12:00+8nw248360 0.0 1014420
15:00+8wsw128195 0.1 1016150
18:00+5ssw2294100 0.0 101841
21:00+5s3993100 0.0 1018242
29 october, fri
fri2900:00+6s41288100 0.0 1016458
03:00+7ssw61493100 1.4 1014745
06:00+9sw61497100 0.1 1013798
09:00+10wsw61486100 0.1 1013919
12:00+11wsw6168327 0.0 1014826
15:00+12wsw615785 0.0 1015921
18:00+11sw5158424 0.0 1015706
21:00+10sw5158480 0.0 1015619
30 october, sat
sat3000:00+9sw5158657 0.0 1016575
03:00+8sw413905 0.0 1016530
06:00+8sw4129311 0.0 1017496
09:00+7sw3109522 0.0 1017401
12:00+9sw410865 0.0 1018465
15:00+10ssw398298 0.0 1017525
18:00+8ssw3109437 0.0 1017285
21:00+8ssw3119657 0.0 1017344
31 october, sun
sun3100:00+8ssw4129494 0.0 1016422
03:00+7sw41295100 0.0 1017486
06:00+7sw4119449 0.0 1017400
09:00+6sw3109446 0.0 1017285
12:00+8sw398312 0.0 1017326
15:00+9ssw3881100 0.0 1017329
18:00+7s3990100 0.0 1016220
21:00+7s31092100 0.0 1015303